When you browse on this site, cookies collect data to enhance your experience and personalize the content and advertising you see.
Visit our Privacy Policy to learn more. By continuing to use the site, you agree to this use of cookies and data.
  • en Suisse
  • Liste des pays
  • À 7 jours
  • Température de l'eau
  • Carte météo
  • Widgets météo
  • user-avatar
    Se connecter

    Météo par heure à Trowbridge

    Ce jour, 16 Décembre, Lundi

    Heure Température Précipitation Vent Pression Humidité
    00:00 +5°C° 0 mm 5 m/s 744 mmHg 86%
    01:00 +5°C° 0 mm 4 m/s 744 mmHg 86%
    02:00 +5°C° 0 mm 4 m/s 744 mmHg 87%
    03:00 +4°C° 0 mm 4 m/s 744 mmHg 87%
    04:00 +4°C° 0 mm 3 m/s 744 mmHg 86%
    05:00 +4°C° 0 mm 3 m/s 745 mmHg 86%
    06:00 +4°C° 0 mm 3 m/s 745 mmHg 86%
    07:00 +4°C° 0 mm 3 m/s 745 mmHg 86%
    08:00 +5°C° 0 mm 2 m/s 745 mmHg 86%
    09:00 +5°C° 0 mm 2 m/s 746 mmHg 87%
    10:00 +6°C° 0 mm 2 m/s 746 mmHg 85%
    11:00 +7°C° 0 mm 2 m/s 746 mmHg 83%
    12:00 +8°C° 0 mm 2 m/s 746 mmHg 81%
    13:00 +7°C° 0 mm 2 m/s 746 mmHg 83%
    14:00 +7°C° 0 mm 2 m/s 745 mmHg 85%
    15:00 +7°C° 0 mm 2 m/s 745 mmHg 88%
    16:00 +7°C° 0.1 mm 2 m/s 745 mmHg 89%
    17:00 +6°C° 0.1 mm 2 m/s 745 mmHg 91%
    18:00 +6°C° 0.1 mm 2 m/s 745 mmHg 92%
    19:00 +7°C° 0.1 mm 1 m/s 745 mmHg 91%
    20:00 +8°C° 0.1 mm 1 m/s 745 mmHg 91%
    21:00 +8°C° 0.1 mm 1 m/s 745 mmHg 90%
    22:00 +8°C° 0.3 mm 1 m/s 744 mmHg 92%
    23:00 +7°C° 0.3 mm 1 m/s 744 mmHg 94%

    Demain, 17 Décembre, Mardi

    Heure Température Précipitation Vent Pression Humidité
    00:00 +7°C° 0.3 mm 1 m/s 744 mmHg 95%
    01:00 +7°C° 0.2 mm 1 m/s 744 mmHg 95%
    02:00 +7°C° 0.2 mm 1 m/s 744 mmHg 96%
    03:00 +7°C° 0.2 mm 1 m/s 744 mmHg 96%
    04:00 +7°C° 0 mm 1 m/s 744 mmHg 95%
    05:00 +7°C° 0 mm 1 m/s 744 mmHg 95%
    06:00 +7°C° 0 mm 1 m/s 744 mmHg 94%
    07:00 +7°C° 0 mm 1 m/s 744 mmHg 94%
    08:00 +7°C° 0 mm 1 m/s 744 mmHg 94%
    09:00 +7°C° 0 mm 1 m/s 745 mmHg 94%
    10:00 +7°C° 0 mm 1 m/s 745 mmHg 93%
    11:00 +8°C° 0 mm 1 m/s 746 mmHg 91%
    12:00 +7°C° 0 mm 2 m/s 746 mmHg 89%
    13:00 +7°C° 0 mm 2 m/s 747 mmHg 90%
    14:00 +7°C° 0 mm 2 m/s 747 mmHg 91%
    15:00 +8°C° 0 mm 1 m/s 747 mmHg 91%
    16:00 +7°C° 0 mm 1 m/s 748 mmHg 92%
    17:00 +6°C° 0 mm 1 m/s 748 mmHg 92%
    18:00 +5°C° 0 mm 1 m/s 749 mmHg 93%
    19:00 +5°C° 0 mm 1 m/s 749 mmHg 92%
    20:00 +4°C° 0 mm 1 m/s 750 mmHg 92%
    21:00 +4°C° 0 mm 1 m/s 750 mmHg 91%
    22:00 +4°C° 0 mm 1 m/s 750 mmHg 91%
    23:00 +4°C° 0 mm 1 m/s 751 mmHg 90%

    Après-demain, 18 Décembre, Mercredi

    Heure Température Précipitation Vent Pression Humidité
    00:00 +4°C° 0 mm 1 m/s 751 mmHg 89%
    01:00 +3°C° 0 mm 2 m/s 751 mmHg 89%
    02:00 +3°C° 0 mm 2 m/s 751 mmHg 89%
    03:00 +3°C° 0 mm 2 m/s 751 mmHg 90%
    04:00 +3°C° 0 mm 2 m/s 751 mmHg 91%
    05:00 +2°C° 0 mm 3 m/s 751 mmHg 91%
    06:00 +2°C° 0 mm 3 m/s 751 mmHg 92%
    07:00 +3°C° 0 mm 3 m/s 751 mmHg 92%
    08:00 +3°C° 0 mm 3 m/s 751 mmHg 93%
    09:00 +4°C° 0 mm 3 m/s 751 mmHg 93%
    10:00 +5°C° 0 mm 4 m/s 751 mmHg 90%
    11:00 +5°C° 0 mm 6 m/s 751 mmHg 87%
    12:00 +6°C° 0 mm 7 m/s 750 mmHg 85%
    13:00 +6°C° 0 mm 7 m/s 750 mmHg 85%
    14:00 +6°C° 0 mm 7 m/s 749 mmHg 85%
    15:00 +6°C° 0 mm 7 m/s 748 mmHg 86%
    16:00 +6°C° 0 mm 7 m/s 748 mmHg 87%
    17:00 +6°C° 0 mm 8 m/s 747 mmHg 88%
    18:00 +5°C° 0 mm 8 m/s 747 mmHg 89%
    19:00 +6°C° 0.2 mm 8 m/s 746 mmHg 90%
    20:00 +7°C° 0.2 mm 8 m/s 745 mmHg 91%
    21:00 +7°C° 0.2 mm 8 m/s 745 mmHg 91%
    22:00 +7°C° 0.7 mm 8 m/s 744 mmHg 92%
    23:00 +9°C° 0.7 mm 8 m/s 744 mmHg 92%

    19 Décembre, Jeudi

    Heure Température Précipitation Vent Pression Humidité
    00:00 +9°C° 0.7 mm 8 m/s 743 mmHg 93%
    01:00 +9°C° 0.8 mm 8 m/s 743 mmHg 93%
    02:00 +10°C° 0.8 mm 8 m/s 742 mmHg 94%
    03:00 +10°C° 0.8 mm 7 m/s 742 mmHg 94%
    04:00 +10°C° 0.8 mm 7 m/s 742 mmHg 94%
    05:00 +10°C° 0.8 mm 7 m/s 742 mmHg 95%
    06:00 +10°C° 0.8 mm 7 m/s 741 mmHg 95%
    07:00 +9°C° 0.8 mm 6 m/s 742 mmHg 95%
    08:00 +9°C° 0.8 mm 5 m/s 742 mmHg 95%
    09:00 +10°C° 0.8 mm 4 m/s 742 mmHg 95%
    10:00 +10°C° 0.2 mm 4 m/s 742 mmHg 94%
    11:00 +11°C° 0.2 mm 4 m/s 742 mmHg 93%
    12:00 +10°C° 0.2 mm 5 m/s 742 mmHg 92%
    13:00 +11°C° 0.8 mm 4 m/s 741 mmHg 91%
    14:00 +11°C° 0.8 mm 4 m/s 741 mmHg 90%
    15:00 +10°C° 0.8 mm 4 m/s 741 mmHg 89%
    16:00 +10°C° 0.1 mm 4 m/s 741 mmHg 91%
    17:00 +9°C° 0.1 mm 3 m/s 741 mmHg 93%
    18:00 +9°C° 0.1 mm 3 m/s 741 mmHg 95%
    19:00 +9°C° 0 mm 3 m/s 741 mmHg 95%
    20:00 +8°C° 0 mm 2 m/s 741 mmHg 96%
    21:00 +8°C° 0 mm 2 m/s 741 mmHg 96%
    22:00 +8°C° 0 mm 2 m/s 741 mmHg 96%
    23:00 +8°C° 0 mm 2 m/s 741 mmHg 96%

    20 Décembre, Vendredi

    Heure Température Précipitation Vent Pression Humidité
    00:00 +8°C° 0 mm 1 m/s 740 mmHg 96%
    01:00 +8°C° 0 mm 1 m/s 740 mmHg 96%
    02:00 +8°C° 0 mm 1 m/s 740 mmHg 96%
    03:00 +8°C° 0 mm 1 m/s 740 mmHg 95%
    04:00 +7°C° 0 mm 1 m/s 740 mmHg 95%
    05:00 +7°C° 0 mm 1 m/s 740 mmHg 95%
    06:00 +7°C° 0 mm 1 m/s 740 mmHg 95%
    07:00 +7°C° 0 mm 1 m/s 740 mmHg 95%
    08:00 +7°C° 0 mm 1 m/s 740 mmHg 95%
    09:00 +5°C° 0 mm 2 m/s 741 mmHg 95%
    10:00 +6°C° 0 mm 2 m/s 741 mmHg 92%
    11:00 +7°C° 0 mm 2 m/s 740 mmHg 89%
    12:00 +8°C° 0 mm 2 m/s 740 mmHg 87%
    13:00 +8°C° 0 mm 2 m/s 740 mmHg 87%
    14:00 +9°C° 0 mm 1 m/s 740 mmHg 88%
    15:00 +8°C° 0 mm 1 m/s 740 mmHg 89%
    16:00 +8°C° 0 mm 1 m/s 740 mmHg 90%
    17:00 +7°C° 0 mm 1 m/s 740 mmHg 91%
    18:00 +6°C° 0 mm 1 m/s 740 mmHg 92%
    19:00 +6°C° 0 mm 1 m/s 740 mmHg 93%
    20:00 +5°C° 0 mm 2 m/s 740 mmHg 93%
    21:00 +5°C° 0 mm 2 m/s 740 mmHg 93%
    22:00 +5°C° 0.1 mm 2 m/s 741 mmHg 93%
    23:00 +6°C° 0.1 mm 2 m/s 741 mmHg 93%

    21 Décembre, Samedi

    Heure Température Précipitation Vent Pression Humidité
    00:00 +6°C° 0.1 mm 2 m/s 741 mmHg 93%
    01:00 +6°C° 0.1 mm 2 m/s 741 mmHg 93%
    02:00 +5°C° 0.1 mm 2 m/s 742 mmHg 93%
    03:00 +5°C° 0.1 mm 2 m/s 742 mmHg 93%
    04:00 +5°C° 0 mm 2 m/s 742 mmHg 93%
    05:00 +4°C° 0 mm 2 m/s 743 mmHg 92%
    06:00 +5°C° 0 mm 1 m/s 743 mmHg 92%
    07:00 +4°C° 0 mm 2 m/s 744 mmHg 92%
    08:00 +4°C° 0 mm 2 m/s 744 mmHg 92%
    09:00 +3°C° 0 mm 2 m/s 744 mmHg 93%
    10:00 +4°C° 0 mm 3 m/s 744 mmHg 90%
    11:00 +5°C° 0 mm 4 m/s 744 mmHg 88%
    12:00 +6°C° 0 mm 5 m/s 744 mmHg 85%
    13:00 +7°C° 0.3 mm 6 m/s 743 mmHg 85%
    14:00 +6°C° 0.3 mm 7 m/s 741 mmHg 85%
    15:00 +6°C° 0.3 mm 8 m/s 740 mmHg 86%
    16:00 +7°C° 1.2 mm 8 m/s 739 mmHg 87%
    17:00 +8°C° 1.2 mm 7 m/s 739 mmHg 89%
    18:00 +9°C° 1.2 mm 7 m/s 738 mmHg 90%
    19:00 +9°C° 0.1 mm 7 m/s 738 mmHg 90%
    20:00 +8°C° 0.1 mm 7 m/s 738 mmHg 91%
    21:00 +8°C° 0.1 mm 6 m/s 737 mmHg 91%
    22:00 +8°C° 1.1 mm 6 m/s 737 mmHg 89%
    23:00 +7°C° 1.1 mm 6 m/s 737 mmHg 87%
    Voir plus